Location: Brantley
(31.5822°N, 86.2569°W)
Time: 13:47:17
(UTC+00:00)

Courier 1B - Pass Details

Date: 17 February 2026
Orbit: 962 x 1208 km, 28.3° (Epoch: 11 March)

Event Time Altitude Azimuth Distance (km) Brightness Sun altitude
Rises 00:02:52 0° 221° (SW) 3,827 11.5 -7.1°
Reaches altitude 10° 00:05:57 10° 209° (SSW) 2,915 10.6 -7.7°
Maximum altitude 00:11:52 28° 153° (SSE) 1,969 9.0 -9.0°
Enters shadow 00:17:54 11° 99° (E) 3,015 9.4 -10.2°
Drops below altitude 10° 00:18:05 10° 98° (E) 3,066 - -10.3°
Sets 00:21:24 0° 88° (E) 4,060 - -11.0°
